This demonstration page uses our WeatherBlox Daily Observations layout. Learn more.

38.89511, -77.03637

Hourly Observations for February 20, 2015

Temp ( °F °C ) Dew Point ( °F °C ) Humidity (%) Winds ( mph kmh ) Pressure ( in mb ) Visibility ( mi km ) Precip ( " mm )
12:52 am 00:52 Partly Cloudy 10 -12.2 -11 -23.9 37 37 NW 14 22 30.27 1025 10 16.0934 0 0
1:52 am 01:52 Clear 8 -13.3 -13 -25 37 37 NNW 9 15 30.29 1026 10 16.0934 0 0
2:52 am 02:52 Clear 8 -13.3 -15 -26.1 33 33 NW 9 15 30.3 1026 10 16.0934 0 0
3:52 am 03:52 Clear 7 -13.9 -14 -25.6 37 37 WNW 10 17 30.32 1027 10 16.0934 0 0
4:52 am 04:52 Clear 7 -13.9 -13 -25 39 39 WNW 7 11 30.34 1027 10 16.0934 0 0
5:52 am 05:52 Clear 6 -14.4 -13 -25 40 40 NNW 8 13 30.37 1028 10 16.0934 0 0
6:52 am 06:52 Clear 6 -14.4 -13 -25 40 40 NW 10 17 30.39 1029 10 16.0934 0 0
7:52 am 07:52 Sunny 8 -13.3 -12 -24.4 39 39 NW 9 15 30.42 1030 10 16.0934 0 0
8:52 am 08:52 Sunny 10 -12.2 -11 -23.9 37 37 WNW 13 20 30.44 1031 10 16.0934 0 0
9:52 am 09:52 Sunny 12 -11.1 -11 -23.9 34 34 WNW 15 24 30.45 1031 10 16.0934 0 0
10:52 am 10:52 Sunny 15 -9.4 -10 -23.3 32 32 NW 13 20 30.46 1031 10 16.0934 0 0
11:52 am 11:52 Sunny 16 -8.9 -9 -22.8 32 32 WNW 13 20 30.47 1032 10 16.0934 0 0
12:52 pm 12:52 Sunny 18 -7.8 -10 -23.3 28 28 W 10 17 30.47 1032 10 16.0934 0 0
1:52 pm 13:52 Sunny 19 -7.2 -8 -22.2 29 29 WNW 10 17 30.46 1032 10 16.0934 0 0
2:52 pm 14:52 Mostly Sunny 20 -6.7 -9 -22.8 27 27 W 6 9 30.47 1032 10 16.0934 0 0
3:52 pm 15:52 Mostly Sunny 21 -6.1 -8 -22.2 27 27 WNW 8 13 30.46 1032 10 16.0934 0 0
4:52 pm 16:52 Mostly Cloudy 21 -6.1 -11 -23.9 23 23 Calm 30.45 1031 10 16.0934 0 0
5:52 pm 17:52 Mostly Cloudy 20 -6.7 -10 -23.3 26 26 SW 3 6 30.47 1032 10 16.0934 0 0
6:52 pm 18:52 Partly Cloudy 19 -7.2 -6 -21.1 32 32 SSE 3 6 30.49 1032 10 16.0934 0 0
7:52 pm 19:52 Mostly Clear 18 -7.8 -4 -20 37 37 SSE 6 9 30.49 1033 10 16.0934 0 0
8:52 pm 20:52 Clear 17 -8.3 -5 -20.6 37 37 SSE 7 11 30.51 1033 10 16.0934 0 0
9:52 pm 21:52 Clear 17 -8.3 -5 -20.6 37 37 S 10 17 30.51 1033 10 16.0934 0 0
10:52 pm 22:52 Clear 17 -8.3 -3 -19.4 41 41 S 8 13 30.51 1033 10 16.0934 0 0
11:52 pm 23:52 Clear 16 -8.9 -1 -18.3 47 47 S 8 13 30.51 1033 10 16.0934 0 0

Powered by AerisWeather